Погода в Лазорках

Украина / Полтавская область     50°04′59″N   32°39′50″E
темп.,
°C
ветер,
м/с
пор.,
м/с
влажн.,
%
обл.,
%
осадки,
мм/ч
давл.,
гПа
погр.,
м
10 мая, пн
пн1000:00+5ссз33695 0.0 102625
03:00+4ссз22715 0.0 102719
06:00+4с22735 0.0 102727
09:00+10с34572 0.0 1027411
12:00+13с45450 0.0 10261678
15:00+15с57455 0.0 10251808
18:00+14с58585 0.0 10231657
21:00+9ссз4107298 0.0 1023174
11 мая, вт
вт1100:00+8ссз4117598 0.0 1022200
03:00+10с61264100 0.0 1021409
06:00+9с61468100 0.0 1020380
09:00+12ссв7137299 0.0 1020517
12:00+17ссв7106719 0.0 1018954
15:00+15всв6981100 0.1 1018622
18:00+13св61182100 0.1 1019870
21:00+10всв6118511 0.2 1020533
12 мая, ср
ср1200:00+7св512855 0.0 1020391
03:00+7всв61078100 0.0 10201020
06:00+8в61181100 0.1 10191065
09:00+9всв6118183 0.1 1019902
12:00+10всв4881100 0.1 10181008
15:00+11в5879100 0.2 1016987
18:00+12в4672100 0.0 1015851
21:00+9всв2491100 0.1 1014120
13 мая, чт
чт1300:00+7ююв2295100 0.0 101441
03:00+7юв3492100 0.0 101469
06:00+6юв3693100 0.0 1014118
09:00+11юв577490 0.0 1014576
12:00+15ююв675714 0.0 10141318
15:00+17ююв675112 0.0 10131617
18:00+17юв4661100 0.0 1012761
21:00+12вюв4670100 0.0 101287
14 мая, пт
пт1400:00+11в487249 0.0 1012119
03:00+12в4889100 0.2 1010143
06:00+11вюв369566 1.3 1010136
09:00+17ююв457912 1.3 1010459
12:00+20ю4663100 0.0 10101084
15:00+21ю4558100 0.0 10101272
18:00+21ююз3466100 0.0 1010291
21:00+16з1176100 0.0 101011